When you browse on this site, cookies collect data to enhance your experience and personalize the content and advertising you see.
Visit our Privacy Policy to learn more. By continuing to use the site, you agree to this use of cookies and data.
  • In Germany
  • List of Countries
  • For 7 days
  • Water Temperature
  • Satellite Maps
  • Weather Map
  • Weather Widgets
  • user-avatar
    Login

    Hourly Weather Chester

    Today, 16 December, Sunday

    Time Temperature Precipitation Wind Pressure Humidity
    00:00 +5°C° 0 mm 8 mps 746 mmHg 78%
    01:00 +5°C° 0 mm 8 mps 747 mmHg 80%
    02:00 +4°C° 0 mm 7 mps 748 mmHg 81%
    03:00 +4°C° 0 mm 6 mps 749 mmHg 83%
    04:00 +4°C° 0 mm 6 mps 749 mmHg 84%
    05:00 +3°C° 0 mm 5 mps 750 mmHg 85%
    06:00 +4°C° 0 mm 4 mps 750 mmHg 88%
    07:00 +4°C° 0 mm 4 mps 751 mmHg 88%
    08:00 +3°C° 0 mm 4 mps 751 mmHg 89%
    09:00 +3°C° 0 mm 4 mps 752 mmHg 90%
    10:00 +4°C° 0 mm 4 mps 752 mmHg 88%
    11:00 +5°C° 0 mm 4 mps 752 mmHg 86%
    12:00 +6°C° 0 mm 4 mps 751 mmHg 85%
    13:00 +6°C° 0.1 mm 4 mps 751 mmHg 87%
    14:00 +6°C° 0.1 mm 4 mps 751 mmHg 88%
    15:00 +6°C° 0.1 mm 4 mps 750 mmHg 89%
    16:00 +6°C° 0.5 mm 4 mps 750 mmHg 91%
    17:00 +5°C° 0.5 mm 5 mps 750 mmHg 92%
    18:00 +5°C° 0.5 mm 5 mps 750 mmHg 93%
    19:00 +5°C° 1 mm 4 mps 751 mmHg 94%
    20:00 +5°C° 1 mm 4 mps 751 mmHg 94%
    21:00 +5°C° 1 mm 3 mps 752 mmHg 94%
    22:00 +5°C° 0.1 mm 4 mps 752 mmHg 93%
    23:00 +5°C° 0.1 mm 4 mps 753 mmHg 91%

    Tomorrow, 17 December, Monday

    Time Temperature Precipitation Wind Pressure Humidity
    00:00 +5°C° 0.1 mm 4 mps 754 mmHg 89%
    01:00 +5°C° 0 mm 4 mps 754 mmHg 89%
    02:00 +5°C° 0 mm 4 mps 755 mmHg 89%
    03:00 +5°C° 0 mm 4 mps 756 mmHg 89%
    04:00 +4°C° 0 mm 4 mps 757 mmHg 89%
    05:00 +4°C° 0 mm 4 mps 757 mmHg 89%
    06:00 +4°C° 0 mm 3 mps 758 mmHg 90%
    07:00 +4°C° 0 mm 3 mps 758 mmHg 89%
    08:00 +4°C° 0 mm 3 mps 759 mmHg 89%
    09:00 +4°C° 0 mm 3 mps 759 mmHg 89%
    10:00 +5°C° 0 mm 4 mps 760 mmHg 87%
    11:00 +6°C° 0 mm 4 mps 760 mmHg 84%
    12:00 +7°C° 0 mm 4 mps 760 mmHg 81%
    13:00 +7°C° 0 mm 5 mps 759 mmHg 83%
    14:00 +7°C° 0 mm 5 mps 759 mmHg 84%
    15:00 +7°C° 0 mm 5 mps 759 mmHg 85%
    16:00 +7°C° 0.1 mm 5 mps 759 mmHg 87%
    17:00 +7°C° 0.1 mm 6 mps 758 mmHg 88%
    18:00 +7°C° 0.1 mm 6 mps 758 mmHg 89%
    19:00 +8°C° 0.1 mm 6 mps 758 mmHg 90%
    20:00 +8°C° 0.1 mm 7 mps 758 mmHg 90%
    21:00 +8°C° 0.1 mm 7 mps 758 mmHg 90%
    22:00 +9°C° 0 mm 7 mps 757 mmHg 89%
    23:00 +9°C° 0 mm 7 mps 757 mmHg 87%

    Day after tomorrow, 18 December, Tuesday

    Time Temperature Precipitation Wind Pressure Humidity
    00:00 +9°C° 0 mm 7 mps 757 mmHg 86%
    01:00 +9°C° 0 mm 7 mps 756 mmHg 86%
    02:00 +9°C° 0 mm 7 mps 756 mmHg 85%
    03:00 +9°C° 0 mm 8 mps 755 mmHg 85%
    04:00 +9°C° 0 mm 8 mps 754 mmHg 84%
    05:00 +8°C° 0 mm 9 mps 754 mmHg 84%
    06:00 +8°C° 0 mm 9 mps 753 mmHg 83%
    07:00 +8°C° 0.1 mm 10 mps 752 mmHg 83%
    08:00 +8°C° 0.1 mm 10 mps 751 mmHg 82%
    09:00 +8°C° 0.1 mm 11 mps 751 mmHg 81%
    10:00 +8°C° 0.6 mm 11 mps 750 mmHg 81%
    11:00 +7°C° 0.6 mm 11 mps 749 mmHg 80%
    12:00 +7°C° 0.6 mm 11 mps 749 mmHg 79%
    13:00 +7°C° 0.9 mm 11 mps 748 mmHg 81%
    14:00 +7°C° 0.9 mm 10 mps 747 mmHg 82%
    15:00 +7°C° 0.9 mm 10 mps 747 mmHg 84%
    16:00 +6°C° 1.3 mm 8 mps 747 mmHg 86%
    17:00 +7°C° 1.3 mm 6 mps 747 mmHg 88%
    18:00 +7°C° 1.3 mm 4 mps 747 mmHg 90%
    19:00 +7°C° 0.4 mm 4 mps 747 mmHg 90%
    20:00 +7°C° 0.4 mm 4 mps 748 mmHg 90%
    21:00 +7°C° 0.4 mm 3 mps 748 mmHg 90%
    22:00 +7°C° 0 mm 3 mps 748 mmHg 90%
    23:00 +7°C° 0 mm 3 mps 749 mmHg 91%

    19 December, Wednesday

    Time Temperature Precipitation Wind Pressure Humidity
    00:00 +5°C° 0 mm 4 mps 749 mmHg 91%
    01:00 +5°C° 0 mm 4 mps 750 mmHg 91%
    02:00 +5°C° 0 mm 4 mps 750 mmHg 91%
    03:00 +5°C° 0 mm 4 mps 750 mmHg 91%
    04:00 +4°C° 0 mm 3 mps 751 mmHg 90%
    05:00 +4°C° 0 mm 3 mps 751 mmHg 90%
    06:00 +4°C° 0 mm 3 mps 751 mmHg 89%
    07:00 +4°C° 0 mm 3 mps 751 mmHg 89%
    08:00 +4°C° 0 mm 3 mps 752 mmHg 89%
    09:00 +3°C° 0 mm 4 mps 752 mmHg 89%
    10:00 +4°C° 0 mm 4 mps 752 mmHg 85%
    11:00 +5°C° 0 mm 4 mps 752 mmHg 82%
    12:00 +6°C° 0 mm 5 mps 752 mmHg 79%
    13:00 +6°C° 0.1 mm 5 mps 752 mmHg 79%
    14:00 +6°C° 0.1 mm 5 mps 752 mmHg 80%
    15:00 +6°C° 0.1 mm 5 mps 751 mmHg 81%
    16:00 +6°C° 0.1 mm 5 mps 751 mmHg 82%
    17:00 +5°C° 0.1 mm 5 mps 751 mmHg 83%
    18:00 +5°C° 0.1 mm 5 mps 751 mmHg 84%
    19:00 +5°C° 0.1 mm 5 mps 751 mmHg 85%
    20:00 +5°C° 0.1 mm 5 mps 751 mmHg 85%
    21:00 +5°C° 0.1 mm 5 mps 751 mmHg 86%
    22:00 +5°C° 0 mm 5 mps 751 mmHg 86%
    23:00 +5°C° 0 mm 5 mps 751 mmHg 87%

    20 December, Thursday

    Time Temperature Precipitation Wind Pressure Humidity
    00:00 +3°C° 0 mm 5 mps 751 mmHg 87%
    01:00 +3°C° 0 mm 5 mps 751 mmHg 87%
    02:00 +3°C° 0 mm 5 mps 751 mmHg 88%
    03:00 +3°C° 0 mm 5 mps 750 mmHg 88%
    04:00 +3°C° 0.1 mm 5 mps 750 mmHg 88%
    05:00 +3°C° 0.1 mm 5 mps 750 mmHg 89%
    06:00 +3°C° 0.1 mm 5 mps 750 mmHg 90%
    07:00 +4°C° 0.1 mm 4 mps 751 mmHg 90%
    08:00 +5°C° 0.1 mm 4 mps 751 mmHg 91%
    09:00 +5°C° 0.1 mm 4 mps 752 mmHg 91%
    10:00 +5°C° 0.1 mm 5 mps 752 mmHg 88%
    11:00 +6°C° 0.1 mm 5 mps 752 mmHg 85%
    12:00 +7°C° 0.1 mm 6 mps 752 mmHg 81%
    13:00 +7°C° 0.4 mm 6 mps 753 mmHg 82%
    14:00 +7°C° 0.4 mm 6 mps 753 mmHg 82%
    15:00 +5°C° 0.4 mm 6 mps 753 mmHg 82%
    16:00 +6°C° 0.2 mm 5 mps 753 mmHg 83%
    17:00 +6°C° 0.2 mm 5 mps 753 mmHg 84%
    18:00 +5°C° 0.2 mm 5 mps 754 mmHg 85%
    19:00 +5°C° 0.1 mm 5 mps 754 mmHg 86%
    20:00 +5°C° 0.1 mm 4 mps 754 mmHg 87%
    21:00 +4°C° 0.1 mm 4 mps 755 mmHg 89%
    22:00 +4°C° 0 mm 3 mps 755 mmHg 89%
    23:00 +4°C° 0 mm 3 mps 755 mmHg 90%

    21 December, Friday

    Time Temperature Precipitation Wind Pressure Humidity
    00:00 +5°C° 0 mm 2 mps 755 mmHg 90%
    01:00 +5°C° 0 mm 2 mps 754 mmHg 90%
    02:00 +5°C° 0 mm 2 mps 754 mmHg 91%
    03:00 +5°C° 0 mm 2 mps 753 mmHg 91%
    04:00 +4°C° 0.2 mm 3 mps 753 mmHg 91%
    05:00 +4°C° 0.2 mm 3 mps 752 mmHg 92%
    06:00 +4°C° 0.2 mm 3 mps 751 mmHg 92%
    07:00 +4°C° 0.9 mm 4 mps 750 mmHg 92%
    08:00 +5°C° 0.9 mm 5 mps 750 mmHg 91%
    09:00 +4°C° 0.9 mm 6 mps 749 mmHg 91%
    10:00 +5°C° 0.4 mm 6 mps 749 mmHg 91%
    11:00 +5°C° 0.4 mm 6 mps 749 mmHg 91%
    12:00 +7°C° 0.4 mm 6 mps 749 mmHg 91%
    13:00 +7°C° 0 mm 6 mps 750 mmHg 87%
    14:00 +7°C° 0 mm 6 mps 750 mmHg 84%
    15:00 +8°C° 0 mm 7 mps 751 mmHg 81%
    16:00 +7°C° 0 mm 6 mps 751 mmHg 84%
    17:00 +7°C° 0 mm 6 mps 751 mmHg 87%
    18:00 +7°C° 0 mm 5 mps 752 mmHg 90%
    19:00 +7°C° 0.5 mm 5 mps 751 mmHg 91%
    20:00 +7°C° 0.5 mm 5 mps 751 mmHg 92%
    21:00 +7°C° 0.5 mm 5 mps 751 mmHg 92%
    22:00 +7°C° 0.6 mm 5 mps 751 mmHg 91%
    23:00 +7°C° 0.6 mm 5 mps 750 mmHg 90%
    Show more